This is the latest recevied weather packets stored in our database for station/object K9MWD. If no packets are shown the sender has not sent any weather packets the latest 10 day(s).
| Time | Temp. | Humidity | Pressure | Rain* | Wind** | Luminosity | Snow |
|---|---|---|---|---|---|---|---|
| 1788537673 | 31.67° C | 59% | 1015.2 hPa | 0 mm | - | 667 W/m² | - |
| 1788537368 | 32.22° C | 59% | 1015.3 hPa | 0 mm | - | 650 W/m² | - |
| 1788537063 | 32.22° C | 59% | 1015.2 hPa | 0 mm | - | 635 W/m² | - |
| 1788536762 | 31.11° C | 63% | 1015.3 hPa | 0 mm | - | 625 W/m² | - |
| 1788536456 | 30.56° C | 62% | 1015.2 hPa | 0 mm | - | 616 W/m² | - |
| 1788536156 | 30.56° C | 62% | 1015.1 hPa | 0 mm | - | 597 W/m² | - |
| 1788535853 | 30.56° C | 66% | 1015.1 hPa | 0 mm | - | 587 W/m² | - |
| 1788535548 | 30.56° C | 67% | 1015 hPa | 0 mm | - | 573 W/m² | - |
| 1788535244 | 30.56° C | 67% | 1015.4 hPa | 0 mm | - | 549 W/m² | - |
| 1788534944 | 30° C | 71% | 1015.2 hPa | 0 mm | - | 532 W/m² | - |
| 1788534644 | 30° C | 70% | 1015.1 hPa | 0 mm | - | 520 W/m² | - |
| 1788534344 | 30.56° C | 72% | 1015.3 hPa | 0 mm | - | 509 W/m² | - |
| 1788534039 | 29.44° C | 73% | 1015.2 hPa | 0 mm | - | 491 W/m² | - |
| 1788533752 | 29.44° C | 75% | 1015.1 hPa | 0 mm | - | 455 W/m² | - |
| 1788533433 | 29.44° C | 76% | 1015.2 hPa | 0 mm | - | 456 W/m² | - |
| 1788533129 | 29.44° C | 76% | 1015.1 hPa | 0 mm | - | 314 W/m² | - |
| 1788532825 | 28.89° C | 78% | 1015.2 hPa | 0 mm | - | 427 W/m² | - |
| 1788532520 | 28.89° C | 78% | 1015.2 hPa | 0 mm | - | 410 W/m² | - |
| 1788532217 | 28.33° C | 81% | 1015 hPa | 0 mm | - | 399 W/m² | - |
| 1788531913 | 28.33° C | 81% | 1015.2 hPa | 0 mm | - | 389 W/m² | - |
| 1788531613 | 28.33° C | 81% | 1015.3 hPa | 0 mm | - | 316 W/m² | - |
| 1788531309 | 28.33° C | 81% | 1015 hPa | 0 mm | - | 204 W/m² | - |
| 1788531005 | 27.78° C | 83% | 1015.1 hPa | 0 mm | - | 290 W/m² | - |
| 1788530705 | 27.22° C | 84% | 1015.1 hPa | 0 mm | - | 326 W/m² | - |
| 1788530404 | 27.22° C | 85% | 1015 hPa | 0 mm | - | 293 W/m² | - |
* Rain latest hour (hover to see other rain measurements)
** Current wind speed in m/s (hover to see current wind gust speed)